| time (UTC) | temp C | wind direction | speed KPH | gust KPH | rain 1hr cm | rain 24hr cm | rain mn cm | humidity % | barometer mb |
| 20260504050003 | 14 | 285 | 1.6 | 6.4 | 0.00 | 0.00 | 0.00 | 74 | 1013.2 |
| 20260504045403 | 14 | 284 | 1.6 | 6.4 | 0.00 | 0.00 | 0.00 | 72 | 1013.1 |
| 20260504044503 | 14 | 279 | 1.6 | 8.0 | 0.00 | 0.00 | 0.00 | 72 | 1012.9 |
| 20260504043603 | 14 | 254 | 3.2 | 8.0 | 0.00 | 0.00 | 0.00 | 72 | 1012.8 |
| 20260504042725 | 14 | 266 | 1.6 | 6.4 | 0.00 | 0.00 | 0.00 | 72 | 1012.8 |
| 20260504041824 | 14 | 274 | 1.6 | 6.4 | 0.00 | 0.00 | 0.00 | 71 | 1012.9 |
| 20260504040924 | 15 | 305 | 1.6 | 4.8 | 0.00 | 0.00 | 0.00 | 70 | 1012.7 |
| 20260504040024 | 15 | 326 | 3.2 | 4.8 | 0.00 | 0.00 | 0.00 | 69 | 1012.5 |
| 20260504035424 | 15 | 315 | 1.6 | 4.8 | 0.00 | 0.00 | 0.00 | 68 | 1012.5 |
| 20260504034524 | 15 | 305 | 1.6 | 4.8 | 0.00 | 0.00 | 0.00 | 67 | 1012.4 |
| 20260504033624 | 15 | 289 | 1.6 | 4.8 | 0.00 | 0.00 | 0.00 | 66 | 1012.3 |
| 20260504032724 | 16 | 307 | 3.2 | 8.0 | 0.00 | 0.00 | 0.00 | 66 | 1012.3 |
| 20260504031824 | 16 | 290 | 3.2 | 6.4 | 0.00 | 0.00 | 0.00 | 65 | 1012.2 |
| 20260504030924 | 16 | 280 | 3.2 | 11.3 | 0.00 | 0.00 | 0.00 | 65 | 1012.1 |
| 20260504030024 | 16 | 276 | 3.2 | 12.9 | 0.00 | 0.00 | 0.00 | 64 | 1012.0 |
| 20260504025403 | 16 | 289 | 3.2 | 12.9 | 0.00 | 0.00 | 0.00 | 63 | 1011.9 |
| 20260504024503 | 17 | 312 | 3.2 | 9.7 | 0.00 | 0.00 | 0.00 | 62 | 1011.6 |
| 20260504023603 | 17 | 321 | 3.2 | 11.3 | 0.00 | 0.00 | 0.00 | 61 | 1011.3 |
| 20260504022703 | 18 | 297 | 3.2 | 11.3 | 0.00 | 0.00 | 0.00 | 60 | 1011.3 |
| 20260504021803 | 18 | 284 | 4.8 | 14.5 | 0.00 | 0.00 | 0.00 | 59 | 1011.3 |
| 20260504020924 | 18 | 305 | 4.8 | 12.9 | 0.00 | 0.00 | 0.00 | 58 | 1011.1 |
| 20260504020003 | 18 | 287 | 4.8 | 17.7 | 0.00 | 0.00 | 0.00 | 58 | 1011.0 |
| 20260504015403 | 19 | 294 | 4.8 | 16.1 | 0.00 | 0.00 | 0.00 | 58 | 1011.0 |
| 20260504014503 | 19 | 301 | 4.8 | 16.1 | 0.00 | 0.00 | 0.00 | 58 | 1011.0 |
| 20260504013603 | 19 | 286 | 4.8 | 17.7 | 0.00 | 0.00 | 0.00 | 58 | 1011.1 |
| 20260504012703 | 19 | 271 | 4.8 | 17.7 | 0.00 | 0.00 | 0.00 | 57 | 1011.0 |
| 20260504011803 | 19 | 274 | 6.4 | 16.1 | 0.00 | 0.00 | 0.00 | 59 | 1011.0 |
| 20260504010924 | 19 | 290 | 6.4 | 16.1 | 0.00 | 0.00 | 0.00 | 57 | 1011.1 |
| 20260504010003 | 20 | 271 | 6.4 | 16.1 | 0.00 | 0.00 | 0.00 | 58 | 1011.2 |
| 20260504005424 | 20 | 279 | 6.4 | 17.7 | 0.00 | 0.00 | 0.00 | 57 | 1011.0 |
| 20260504004503 | 20 | 276 | 4.8 | 19.3 | 0.00 | 0.00 | 0.00 | 57 | 1011.0 |
| 20260504003603 | 20 | 275 | 6.4 | 19.3 | 0.00 | 0.00 | 0.00 | 57 | 1011.0 |
| 20260504002703 | 20 | 265 | 6.4 | 19.3 | 0.00 | 0.00 | 0.00 | 57 | 1010.8 |
| 20260504001803 | 21 | 271 | 6.4 | 19.3 | 0.00 | 0.00 | 0.00 | 54 | 1010.9 |
| 20260504000903 | 21 | 264 | 4.8 | 16.1 | 0.00 | 0.00 | 0.00 | 54 | 1010.8 |
| 20260504000003 | 22 | 271 | 4.8 | 14.5 | 0.00 | 0.00 | 0.00 | 53 | 1010.8 |
| 20260503235403 | 22 | 307 | 4.8 | 17.7 | 0.00 | 0.00 | 0.00 | 53 | 1010.7 |
| 20260503234503 | 22 | 282 | 4.8 | 17.7 | 0.00 | 0.00 | 0.00 | 54 | 1010.7 |
| 20260503233603 | 22 | 309 | 4.8 | 17.7 | 0.00 | 0.00 | 0.00 | 54 | 1010.7 |
| 20260503232703 | 22 | 277 | 4.8 | 12.9 | 0.00 | 0.00 | 0.00 | 53 | 1010.7 |
| 20260503231803 | 22 | 290 | 4.8 | 17.7 | 0.00 | 0.00 | 0.00 | 53 | 1010.8 |
| 20260503230903 | 22 | 290 | 4.8 | 19.3 | 0.00 | 0.00 | 0.00 | 52 | 1010.9 |
| 20260503230003 | 22 | 325 | 4.8 | 17.7 | 0.00 | 0.00 | 0.00 | 54 | 1010.9 |
| 20260503225403 | 22 | 312 | 4.8 | 17.7 | 0.00 | 0.00 | 0.00 | 52 | 1010.9 |
| 20260503224503 | 22 | 285 | 4.8 | 16.1 | 0.00 | 0.00 | 0.00 | 53 | 1010.9 |
| 20260503223606 | 22 | 285 | 4.8 | 14.5 | 0.00 | 0.00 | 0.00 | 54 | 1011.0 |
| 20260503222703 | 21 | 293 | 4.8 | 17.7 | 0.00 | 0.00 | 0.00 | 55 | 1011.1 |
| 20260503221803 | 21 | 265 | 4.8 | 14.5 | 0.00 | 0.00 | 0.00 | 56 | 1011.0 |
| 20260503220903 | 21 | 296 | 4.8 | 17.7 | 0.00 | 0.00 | 0.00 | 53 | 1011.1 |
| 20260503220003 | 21 | 309 | 4.8 | 16.1 | 0.00 | 0.00 | 0.00 | 54 | 1011.1 |
| 20260503215406 | 22 | 311 | 4.8 | 24.1 | 0.00 | 0.00 | 0.00 | 52 | 1011.1 |
| 20260503214503 | 21 | 302 | 4.8 | 12.9 | 0.00 | 0.00 | 0.00 | 56 | 1011.3 |
| 20260503213603 | 21 | 297 | 4.8 | 12.9 | 0.00 | 0.00 | 0.00 | 53 | 1011.4 |
| 20260503212703 | 21 | 327 | 4.8 | 14.5 | 0.00 | 0.00 | 0.00 | 55 | 1011.5 |
| 20260503211803 | 21 | 337 | 4.8 | 17.7 | 0.00 | 0.00 | 0.00 | 54 | 1011.4 |
| 20260503210924 | 22 | 284 | 3.2 | 14.5 | 0.00 | 0.00 | 0.00 | 54 | 1011.5 |
| 20260503210003 | 21 | 341 | 6.4 | 20.9 | 0.00 | 0.00 | 0.00 | 56 | 1011.4 |
| 20260503205403 | 21 | 308 | 4.8 | 12.9 | 0.00 | 0.00 | 0.00 | 55 | 1011.4 |
| 20260503204503 | 21 | 312 | 4.8 | 16.1 | 0.00 | 0.00 | 0.00 | 56 | 1011.4 |
| 20260503203603 | 21 | 324 | 4.8 | 17.7 | 0.00 | 0.00 | 0.00 | 56 | 1011.4 |
| 20260503202703 | 21 | 311 | 4.8 | 12.9 | 0.00 | 0.00 | 0.00 | 57 | 1011.4 |
| 20260503201803 | 21 | 290 | 4.8 | 12.9 | 0.00 | 0.00 | 0.00 | 57 | 1011.4 |
| 20260503200903 | 21 | 318 | 6.4 | 19.3 | 0.00 | 0.00 | 0.00 | 56 | 1011.4 |
| 20260503200003 | 20 | 275 | 3.2 | 14.5 | 0.00 | 0.00 | 0.00 | 58 | 1011.5 |
| 20260503195403 | 20 | 274 | 3.2 | 8.0 | 0.00 | 0.00 | 0.00 | 56 | 1011.6 |
| 20260503194503 | 21 | 284 | 3.2 | 14.5 | 0.00 | 0.00 | 0.00 | 55 | 1011.8 |
| 20260503193603 | 21 | 280 | 3.2 | 11.3 | 0.00 | 0.00 | 0.00 | 57 | 1011.8 |
| 20260503192703 | 21 | 278 | 3.2 | 12.9 | 0.00 | 0.00 | 0.00 | 56 | 1011.8 |
| 20260503191803 | 20 | 320 | 3.2 | 8.0 | 0.00 | 0.00 | 0.00 | 58 | 1011.7 |
| 20260503190903 | 20 | 293 | 3.2 | 12.9 | 0.00 | 0.00 | 0.00 | 56 | 1011.9 |
| 20260503190003 | 20 | 281 | 3.2 | 8.0 | 0.00 | 0.00 | 0.00 | 58 | 1011.8 |
| 20260503185406 | 20 | 287 | 4.8 | 19.3 | 0.00 | 0.00 | 0.00 | 56 | 1011.8 |
| 20260503184503 | 20 | 282 | 3.2 | 12.9 | 0.00 | 0.00 | 0.00 | 57 | 1011.8 |
| 20260503183603 | 20 | 334 | 4.8 | 22.5 | 0.00 | 0.00 | 0.00 | 57 | 1011.7 |
| 20260503182703 | 20 | 286 | 4.8 | 22.5 | 0.00 | 0.00 | 0.00 | 58 | 1011.8 |
| 20260503181803 | 20 | 269 | 3.2 | 16.1 | 0.00 | 0.00 | 0.00 | 58 | 1011.7 |
| 20260503180904 | 20 | 271 | 3.2 | 12.9 | 0.00 | 0.00 | 0.00 | 61 | 1011.9 |
| 20260503180003 | 19 | 267 | 3.2 | 14.5 | 0.00 | 0.00 | 0.00 | 61 | 1011.8 |
| 20260503175403 | 19 | 266 | 3.2 | 16.1 | 0.00 | 0.00 | 0.00 | 61 | 1011.8 |
| 20260503174503 | 18 | 265 | 3.2 | 11.3 | 0.00 | 0.00 | 0.00 | 62 | 1011.8 |
| 20260503173603 | 18 | 269 | 4.8 | 17.7 | 0.00 | 0.00 | 0.00 | 61 | 1011.8 |
| 20260503172703 | 18 | 267 | 3.2 | 11.3 | 0.00 | 0.00 | 0.00 | 62 | 1011.6 |
| 20260503171803 | 18 | 298 | 4.8 | 9.7 | 0.00 | 0.00 | 0.00 | 61 | 1011.8 |
| 20260503170903 | 18 | 316 | 3.2 | 12.9 | 0.00 | 0.00 | 0.00 | 64 | 1011.7 |
| 20260503150903 | 13 | 228 | 0.0 | 3.2 | 0.00 | 0.00 | 0.00 | 82 | 1011.2 |
| 20260503130903 | 12 | 296 | 1.6 | 4.8 | 0.00 | 0.00 | 0.00 | 82 | 1009.9 |
| 20260503080903 | 13 | 340 | 1.6 | 4.8 | 0.00 | 0.00 | 0.00 | 82 | 1010.0 |
| 20260503072703 | 13 | 309 | 3.2 | 6.4 | 0.00 | 0.00 | 0.00 | 82 | 1010.0 |
| 20260503071803 | 13 | 325 | 3.2 | 4.8 | 0.00 | 0.00 | 0.00 | 81 | 1010.1 |
| 20260503070903 | 13 | 334 | 3.2 | 4.8 | 0.00 | 0.00 | 0.00 | 81 | 1010.1 |